Regional Weather Roundup
Issued by NWS Newport/Morehead, NC

Home | Current Version | Previous Version | Text Only | Print | Product List | Glossary On
Versions: 1 2 3 4 5 6 7 8 9 10 11 12 13 14 15 16 17 18 19 20 21 22 23 24 25 26 27 28 29 30 31 32 33 34 35 36 37 38 39 40 41 42 43 44 45 46 47 48 49 50
000
ASUS42 KMHX 111122
RWRMHX
WEATHER ROUNDUP FOR EASTERN NORTH CAROLINA
NATIONAL WEATHER SERVICE NEWPORT/MOREHEAD CITY NC
700 AM EDT FRI JUL 11 2014

NOTE: "FAIR" INDICATES FEW OR NO CLOUDS BELOW 12,000 FEET
WITH NO SIGNIFICANT WEATHER AND/OR OBSTRUCTIONS TO VISIBILITY

NCZ015>017-031-032-045>047-102-103-111200-
NORTH COAST

CITY           SKY/WX    TMP DP  RH WIND       PRES   REMARKS
EDENTON        CLOUDY    70  70  98 CALM      30.12S FOG
ELIZABETH CITY CLOUDY    73  71  93 CALM      30.12S
KITTY HAWK     CLOUDY    73  71  95 CALM      30.12R FOG
MANTEO         NOT AVBL

$$

NCZ045>047-081-094-103-104-111200-
CENTRAL COAST

CITY           SKY/WX    TMP DP  RH WIND       PRES   REMARKS
FRISCO         LGT RAIN  77  73  87 S9        30.13R
SWANQUARTER      N/A     75 N/A N/A N2        30.09R

$$

NCZ095-097-098-100-101-111200-
SOUTHERN COAST

CITY           SKY/WX    TMP DP  RH WIND       PRES   REMARKS
BEAUFORT       CLOUDY    75  71  87 W5        30.13R
CEDAR ISLAND     N/A     75 N/A N/A S3        30.15S
JACKSONVILLE   MOCLDY    72  71  97 CALM      30.13R
NEWPORT        NOT AVBL
PINEY ISLAND   CLOUDY    75  75 100 S3        30.12R
WILMINGTON     MOCLDY    73  71  93 CALM      30.13R


$$

NCZ011>013-027>030-043-044-078>080-089-090>093-098-111200-
COASTAL PLAIN

CITY           SKY/WX    TMP DP  RH WIND       PRES   REMARKS
AHOSKIE        CLOUDY    69  68  96 CALM      30.13S VSB 1/4
CLINTON        CLOUDY    71  71 100 CALM      30.13S FOG
ELIZABETHTOWN  MOCLDY    70  70 100 CALM      30.13R FOG
GOLDSBORO      CLOUDY    72  71  99 CALM      30.12R
GREENVILLE     FOG       70  70 100 CALM      30.14R VSB 1/4
HAVELOCK       CLOUDY    73  71  93 SW5       30.13R
KENANSVILLE    CLOUDY    70  69  96 CALM      30.14R FOG
KINSTON        CLOUDY    72  72 100 CALM      30.14R FOG
NEW BERN       CLOUDY    74  71  91 CALM      30.13R
RICHLANDS      MOCLDY    72  68  88 CALM      30.14R
ROANOKE RAPIDS NOT AVBL
ROCKY MOUNT    CLOUDY    71  69  93 CALM      30.13S FOG
WASHINGTON     CLOUDY   N/A N/A N/A CALM      30.13R VSB 1/2
WHITEVILLE     CLOUDY    71  69  95 NE3       30.12S FOG

$$

AMZ130-135-150-152-154-156-158-170-250-252-270-ANZ085-086-088-633-658-670-111200-
MARINE OBSERVATIONS

STATION/POSITION TIME  TEMP    WIND        PRES    WAVE   SWELL
                       AIR SEA DIR/SP/G            HT/PER HT/PER
                 (UTC) (F)     (DEG/KT/KT) (MB)    (FT/S) (FT/S)
CHESAPEAKE LIGHT NOT AVBL
BUOY 44014       1100   74 74  220/  2/  4 1019.8    3/ 6   2/ 6
DUCK             1100   72 64   50/  5/  6 1019.4
2E DUCK          1100                        N/A     2/ 9
OREGON INLET     1100   74 83   70/  4/  5 1020.0
BUOY 44095       1100      77                N/A     3/ 6
HATTERAS CG      1100   76 83  220/  5/  7 1020.7
DIAMOND BUOY     1100          VRB  8/ 10  1020.1    3/ 5   3/ 5
17S OCRACOKE INL NOT AVBL
CAPE LOOKOUT     1100   76     210/  4/  5 1020.2
BEAUFORT LAB     1100   75 81  270/  1/  4 1019.9
30 SE NEW RIVER  1100   78 81  210/  6/  6 1020.2    4/ 6   3/ 6
5 SE WRIGHTSVILL 1100   72 81  350/  6/  8 1020.6
FRYING PAN BUOY  NOT AVBL
BUOY 41001       NOT AVBL
BUOY 41002       1010   81 81  220/  6/  8 1022.1    3/ 8   2/ 8
BUOY 41004       1100   81 81  210/  8/  8 1018.7    3/ 5   3/ 5

$$


USA.gov is the U.S. government's official web portal to all federal, state and local government web resources and services.